When you browse on this site, cookies collect data to enhance your experience and personalize the content and advertising you see.
Visit our Privacy Policy to learn more. By continuing to use the site, you agree to this use of cookies and data.
  • In Hungary
  • List of Countries
  • For 7 days
  • Water Temperature
  • Weather Map
  • News
  • Weather Widgets
  • user-avatar
    Login

    Hourly Weather Ruse

    Today, 28 May, Thursday

    Time Temperature Precipitation Wind Pressure Humidity
    00:00 +12°C° 0.1 mm 1 mps 759 mmHg 86%
    01:00 +12°C° 0.1 mm 1 mps 759 mmHg 87%
    02:00 +11°C° 0.1 mm 1 mps 759 mmHg 89%
    03:00 +11°C° 0 mm 1 mps 759 mmHg 90%
    04:00 +11°C° 0 mm 1 mps 758 mmHg 91%
    05:00 +10°C° 0 mm 1 mps 758 mmHg 91%
    06:00 +12°C° 0.1 mm 2 mps 758 mmHg 88%
    07:00 +13°C° 0.1 mm 2 mps 758 mmHg 85%
    08:00 +14°C° 0.1 mm 3 mps 757 mmHg 81%
    09:00 +16°C° 0.9 mm 3 mps 757 mmHg 76%
    10:00 +17°C° 0.9 mm 3 mps 757 mmHg 71%
    11:00 +18°C° 0.9 mm 4 mps 756 mmHg 67%
    12:00 +19°C° 0.8 mm 3 mps 756 mmHg 64%
    13:00 +19°C° 0.8 mm 3 mps 755 mmHg 61%
    14:00 +20°C° 0.8 mm 3 mps 755 mmHg 59%
    15:00 +20°C° 0.6 mm 3 mps 755 mmHg 60%
    16:00 +20°C° 0.6 mm 3 mps 754 mmHg 61%
    17:00 +19°C° 0.6 mm 3 mps 754 mmHg 62%
    18:00 +18°C° 0.5 mm 3 mps 754 mmHg 68%
    19:00 +16°C° 0.5 mm 2 mps 754 mmHg 74%
    20:00 +15°C° 0.5 mm 2 mps 754 mmHg 81%
    21:00 +14°C° 0 mm 2 mps 755 mmHg 83%
    22:00 +13°C° 0 mm 2 mps 755 mmHg 86%
    23:00 +13°C° 0 mm 2 mps 755 mmHg 89%

    Tomorrow, 29 May, Friday

    Time Temperature Precipitation Wind Pressure Humidity
    00:00 +12°C° 0 mm 2 mps 755 mmHg 90%
    01:00 +12°C° 0 mm 2 mps 755 mmHg 91%
    02:00 +10°C° 0 mm 2 mps 755 mmHg 92%
    03:00 +10°C° 0 mm 2 mps 755 mmHg 92%
    04:00 +10°C° 0 mm 2 mps 755 mmHg 93%
    05:00 +9°C° 0 mm 2 mps 755 mmHg 93%
    06:00 +12°C° 0 mm 2 mps 755 mmHg 89%
    07:00 +12°C° 0 mm 3 mps 756 mmHg 85%
    08:00 +14°C° 0 mm 4 mps 756 mmHg 81%
    09:00 +17°C° 0.1 mm 4 mps 755 mmHg 76%
    10:00 +18°C° 0.1 mm 4 mps 755 mmHg 71%
    11:00 +20°C° 0.1 mm 5 mps 755 mmHg 66%
    12:00 +20°C° 0.7 mm 5 mps 755 mmHg 64%
    13:00 +21°C° 0.7 mm 4 mps 754 mmHg 61%
    14:00 +22°C° 0.7 mm 4 mps 754 mmHg 59%
    15:00 +22°C° 0.9 mm 4 mps 754 mmHg 60%
    16:00 +21°C° 0.9 mm 3 mps 754 mmHg 62%
    17:00 +21°C° 0.9 mm 3 mps 754 mmHg 63%
    18:00 +19°C° 0.9 mm 3 mps 754 mmHg 70%
    19:00 +18°C° 0.9 mm 3 mps 754 mmHg 77%
    20:00 +16°C° 0.9 mm 3 mps 754 mmHg 84%
    21:00 +14°C° 0.3 mm 3 mps 754 mmHg 86%
    22:00 +13°C° 0.3 mm 3 mps 754 mmHg 88%
    23:00 +14°C° 0.3 mm 2 mps 755 mmHg 90%

    Day after tomorrow, 30 May, Saturday

    Time Temperature Precipitation Wind Pressure Humidity
    00:00 +13°C° 0.1 mm 2 mps 755 mmHg 90%
    01:00 +13°C° 0.1 mm 2 mps 755 mmHg 90%
    02:00 +13°C° 0.1 mm 1 mps 754 mmHg 90%
    03:00 +12°C° 0 mm 2 mps 754 mmHg 90%
    04:00 +12°C° 0 mm 2 mps 754 mmHg 90%
    05:00 +12°C° 0 mm 2 mps 754 mmHg 90%
    06:00 +12°C° 0 mm 3 mps 755 mmHg 85%
    07:00 +14°C° 0 mm 3 mps 755 mmHg 81%
    08:00 +17°C° 0 mm 4 mps 755 mmHg 76%
    09:00 +18°C° 0 mm 4 mps 755 mmHg 73%
    10:00 +19°C° 0 mm 5 mps 755 mmHg 70%
    11:00 +20°C° 0 mm 5 mps 755 mmHg 66%
    12:00 +21°C° 0.1 mm 5 mps 754 mmHg 64%
    13:00 +22°C° 0.1 mm 5 mps 754 mmHg 62%
    14:00 +22°C° 0.1 mm 4 mps 754 mmHg 60%
    15:00 +22°C° 0.1 mm 4 mps 753 mmHg 60%
    16:00 +23°C° 0.1 mm 4 mps 753 mmHg 59%
    17:00 +24°C° 0.1 mm 3 mps 753 mmHg 58%
    18:00 +21°C° 0 mm 3 mps 753 mmHg 64%
    19:00 +19°C° 0 mm 2 mps 753 mmHg 70%
    20:00 +17°C° 0 mm 2 mps 753 mmHg 76%
    21:00 +17°C° 0 mm 2 mps 753 mmHg 78%
    22:00 +16°C° 0 mm 2 mps 754 mmHg 80%
    23:00 +15°C° 0 mm 2 mps 754 mmHg 82%

    31 May, Sunday

    Time Temperature Precipitation Wind Pressure Humidity
    00:00 +15°C° 0 mm 2 mps 754 mmHg 83%
    01:00 +14°C° 0 mm 2 mps 753 mmHg 85%
    02:00 +13°C° 0 mm 3 mps 753 mmHg 87%
    03:00 +13°C° 0 mm 3 mps 753 mmHg 87%
    04:00 +12°C° 0 mm 3 mps 753 mmHg 88%
    05:00 +12°C° 0 mm 3 mps 753 mmHg 88%
    06:00 +14°C° 0 mm 4 mps 753 mmHg 82%
    07:00 +15°C° 0 mm 5 mps 753 mmHg 76%
    08:00 +17°C° 0 mm 5 mps 753 mmHg 69%
    09:00 +19°C° 0 mm 6 mps 753 mmHg 65%
    10:00 +21°C° 0 mm 6 mps 753 mmHg 61%
    11:00 +22°C° 0 mm 6 mps 753 mmHg 56%
    12:00 +22°C° 0.1 mm 6 mps 752 mmHg 55%
    13:00 +23°C° 0.1 mm 6 mps 752 mmHg 54%
    14:00 +23°C° 0.1 mm 6 mps 752 mmHg 52%
    15:00 +23°C° 0.1 mm 6 mps 751 mmHg 54%
    16:00 +23°C° 0.1 mm 5 mps 751 mmHg 56%
    17:00 +22°C° 0.1 mm 5 mps 751 mmHg 57%
    18:00 +21°C° 0.1 mm 5 mps 751 mmHg 63%
    19:00 +19°C° 0.1 mm 4 mps 751 mmHg 68%
    20:00 +17°C° 0.1 mm 4 mps 752 mmHg 74%
    21:00 +15°C° 0 mm 4 mps 752 mmHg 74%
    22:00 +15°C° 0 mm 4 mps 752 mmHg 74%
    23:00 +14°C° 0 mm 4 mps 752 mmHg 74%

    1 June, Monday

    Time Temperature Precipitation Wind Pressure Humidity
    00:00 +13°C° 0 mm 4 mps 752 mmHg 75%
    01:00 +13°C° 0 mm 4 mps 752 mmHg 77%
    02:00 +12°C° 0 mm 4 mps 751 mmHg 79%
    03:00 +12°C° 0 mm 4 mps 751 mmHg 80%
    04:00 +12°C° 0 mm 4 mps 751 mmHg 81%
    05:00 +12°C° 0 mm 4 mps 751 mmHg 82%
    06:00 +13°C° 0 mm 4 mps 751 mmHg 78%
    07:00 +15°C° 0 mm 5 mps 751 mmHg 75%
    08:00 +16°C° 0 mm 6 mps 752 mmHg 72%
    09:00 +17°C° 0 mm 5 mps 751 mmHg 68%
    10:00 +19°C° 0 mm 5 mps 751 mmHg 65%
    11:00 +20°C° 0 mm 5 mps 751 mmHg 62%
    12:00 +21°C° 0.1 mm 5 mps 751 mmHg 61%
    13:00 +21°C° 0.1 mm 5 mps 751 mmHg 60%
    14:00 +22°C° 0.1 mm 5 mps 750 mmHg 59%
    15:00 +22°C° 0.4 mm 4 mps 750 mmHg 61%
    16:00 +21°C° 0.4 mm 4 mps 750 mmHg 64%
    17:00 +21°C° 0.4 mm 3 mps 750 mmHg 66%
    18:00 +19°C° 0.2 mm 3 mps 750 mmHg 71%
    19:00 +18°C° 0.2 mm 2 mps 750 mmHg 75%
    20:00 +17°C° 0.2 mm 2 mps 750 mmHg 79%
    21:00 +16°C° 0.1 mm 2 mps 750 mmHg 81%
    22:00 +15°C° 0.1 mm 2 mps 751 mmHg 83%
    23:00 +15°C° 0.1 mm 2 mps 751 mmHg 84%

    2 June, Tuesday

    Time Temperature Precipitation Wind Pressure Humidity
    00:00 +14°C° 0 mm 1 mps 751 mmHg 85%
    01:00 +14°C° 0 mm 1 mps 751 mmHg 86%
    02:00 +13°C° 0 mm 1 mps 751 mmHg 88%
    03:00 +13°C° 0 mm 1 mps 751 mmHg 88%
    04:00 +12°C° 0 mm 0 mps 751 mmHg 88%
    05:00 +12°C° 0 mm 0 mps 751 mmHg 89%
    06:00 +14°C° 0 mm 1 mps 751 mmHg 84%
    07:00 +16°C° 0 mm 1 mps 751 mmHg 79%
    08:00 +19°C° 0 mm 1 mps 752 mmHg 74%
    09:00 +20°C° 0.2 mm 1 mps 752 mmHg 70%
    10:00 +20°C° 0.2 mm 2 mps 752 mmHg 67%
    11:00 +21°C° 0.2 mm 2 mps 752 mmHg 63%
    12:00 +23°C° 0.4 mm 2 mps 751 mmHg 60%
    13:00 +24°C° 0.4 mm 2 mps 751 mmHg 57%
    14:00 +25°C° 0.4 mm 2 mps 751 mmHg 55%
    15:00 +25°C° 0.2 mm 2 mps 751 mmHg 56%
    16:00 +25°C° 0.2 mm 2 mps 751 mmHg 57%
    17:00 +24°C° 0.2 mm 2 mps 750 mmHg 58%
    18:00 +23°C° 0.2 mm 2 mps 750 mmHg 65%
    19:00 +20°C° 0.2 mm 2 mps 750 mmHg 73%
    20:00 +18°C° 0.2 mm 2 mps 751 mmHg 81%
    21:00 +17°C° 0 mm 2 mps 751 mmHg 84%
    22:00 +18°C° 0 mm 1 mps 751 mmHg 86%
    23:00 +16°C° 0 mm 1 mps 751 mmHg 88%
    Show more